,,,PA_Meas_PMT16A,,PR_Meas_QMR101_102,,RH_Meas_QMH101,,SR_Meas_QMS101,,TA_Meas_QMH101,,GenWind,,GenWind,
date,time,status,PA,status,PR,status,RH,status,SR,status,TA,status,DirAvg,status,SpdAvg,
2009-02-24, 00:00:04,VALID,998.359,VALID,0,VALID,95.4923,VALID,0,VALID,23.703,VALID,183,VALID,0.289453,
2009-02-24, 00:01:04,VALID,998.367,VALID,0,VALID,95.4465,VALID,0,VALID,23.664,VALID,286,VALID,0.387109,
2009-02-24, 00:02:04,VALID,998.362,VALID,0,VALID,95.4237,VALID,0,VALID,23.6232,VALID,286,VALID,0.128125,
2009-02-24, 00:03:04,VALID,998.357,VALID,0,VALID,95.416,VALID,0,VALID,23.6036,VALID,286,VALID,0,
2009-02-24, 00:04:04,VALID,998.343,VALID,0,VALID,95.4389,VALID,0,VALID,23.6072,VALID,286,VALID,0,
2009-02-24, 00:05:04,VALID,998.372,VALID,0,VALID,95.4542,VALID,0,VALID,23.6054,VALID,286,VALID,0,
2009-02-24, 00:06:04,VALID,998.341,VALID,0,VALID,95.4542,VALID,0,VALID,23.5859,VALID,286,VALID,0,
2009-02-24, 00:07:04,VALID,998.345,VALID,0,VALID,95.4694,VALID,0,VALID,23.5859,VALID,281,VALID,0.100781,
2009-02-24, 00:08:04,VALID,998.29,VALID,0,VALID,95.5381,VALID,0,VALID,23.625,VALID,166,VALID,0.549609,
2009-02-24, 00:09:04,VALID,998.257,VALID,0,VALID,95.5762,VALID,0,VALID,23.664,VALID,157,VALID,0.472266,
2009-02-24, 00:10:04,VALID,998.228,VALID,0,VALID,95.561,VALID,0,VALID,23.664,VALID,157,VALID,0.11875,
2009-02-24, 00:11:04,VALID,998.213,VALID,0,VALID,95.561,VALID,0,VALID,23.6835,VALID,157,VALID,0.257813,
2009-02-24, 00:12:04,VALID,998.2,VALID,0,VALID,95.5457,VALID,0,VALID,23.664,VALID,157,VALID,0.258594,
2009-02-24, 00:13:04,VALID,998.258,VALID,0,VALID,95.5381,VALID,0,VALID,23.6835,VALID,157,VALID,0.335547,
2009-02-24, 00:14:04,VALID,998.279,VALID,0,VALID,95.4847,VALID,0,VALID,23.6835,VALID,118,VALID,0.586328,
2009-02-24, 00:15:04,VALID,998.275,VALID,0,VALID,95.4465,VALID,0,VALID,23.664,VALID,96,VALID,0.698828,
2009-02-24, 00:16:04,VALID,998.284,VALID,0,VALID,95.4389,VALID,0,VALID,23.6658,VALID,96,VALID,0.258984,
2009-02-24, 00:17:04,VALID,998.278,VALID,0,VALID,95.4542,VALID,0,VALID,23.625,VALID,96,VALID,0.115625,
2009-02-24, 00:18:04,VALID,998.279,VALID,0,VALID,95.5076,VALID,0,VALID,23.6445,VALID,96,VALID,0.255078,
2009-02-24, 00:19:04,VALID,998.227,VALID,0,VALID,95.4923,VALID,0,VALID,23.6445,VALID,90,VALID,0.584766,
2009-02-24, 00:20:04,VALID,998.221,VALID,0,VALID,95.4847,VALID,0,VALID,23.6445,VALID,82,VALID,0.690625,
2009-02-24, 00:21:04,VALID,998.158,VALID,0,VALID,95.5305,VALID,0,VALID,23.664,VALID,82,VALID,0.555078,
2009-02-24, 00:22:04,VALID,998.11,VALID,0,VALID,95.5381,VALID,0,VALID,23.6445,VALID,82,VALID,0.209766,
2009-02-24, 00:23:04,VALID,998.096,VALID,0,VALID,95.5381,VALID,0,VALID,23.6835,VALID,82,VALID,0.163672,
2009-02-24, 00:24:04,VALID,998.054,VALID,0,VALID,95.5228,VALID,0,VALID,23.6835,VALID,82,VALID,0.00546875,
2009-02-24, 00:25:04,VALID,998.02,VALID,0,VALID,95.5381,VALID,0,VALID,23.6835,VALID,82,VALID,0.278906,
2009-02-24, 00:26:04,VALID,997.985,VALID,0,VALID,95.5686,VALID,0,VALID,23.6835,VALID,82,VALID,0.157031,
2009-02-24, 00:27:04,VALID,997.989,VALID,0,VALID,95.5381,VALID,0,VALID,23.703,VALID,82,VALID,0.194922,
2009-02-24, 00:28:04,VALID,997.951,VALID,0,VALID,95.5381,VALID,0,VALID,23.703,VALID,82,VALID,0.458984,
2009-02-24, 00:29:04,VALID,997.999,VALID,0,VALID,95.5534,VALID,0,VALID,23.7225,VALID,82,VALID,0.508984,
2009-02-24, 00:30:04,VALID,997.989,VALID,0,VALID,95.5381,VALID,0,VALID,23.7225,VALID,83,VALID,0.499609,
2009-02-24, 00:31:04,VALID,997.997,VALID,0,VALID,95.5305,VALID,0,VALID,23.7225,VALID,83,VALID,0.495313,
2009-02-24, 00:32:04,VALID,998.008,VALID,0,VALID,95.5228,VALID,0,VALID,23.703,VALID,82,VALID,0.545703,
2009-02-24, 00:33:04,VALID,998.013,VALID,0,VALID,95.4847,VALID,0,VALID,23.6835,VALID,82,VALID,0.611719,
2009-02-24, 00:34:04,VALID,998.03,VALID,0,VALID,95.4847,VALID,0,VALID,23.6835,VALID,82,VALID,0.617188,
2009-02-24, 00:35:04,VALID,997.963,VALID,0,VALID,95.4618,VALID,0,VALID,23.664,VALID,82,VALID,0.442969,
2009-02-24, 00:36:04,VALID,997.952,VALID,0,VALID,95.4618,VALID,0,VALID,23.6445,VALID,82,VALID,0.263281,
2009-02-24, 00:37:04,VALID,997.948,VALID,0,VALID,95.4771,VALID,0,VALID,23.6445,VALID,81,VALID,0.294922,
2009-02-24, 00:38:04,VALID,997.955,VALID,0,VALID,95.4771,VALID,0,VALID,23.625,VALID,80,VALID,0.329688,
2009-02-24, 00:39:04,VALID,997.946,VALID,0,VALID,95.4771,VALID,0,VALID,23.625,VALID,80,VALID,0.396484,
2009-02-24, 00:40:04,VALID,997.947,VALID,0,VALID,95.4923,VALID,0,VALID,23.625,VALID,45,VALID,0.700391,
2009-02-24, 00:41:04,VALID,997.916,VALID,0,VALID,95.4923,VALID,0,VALID,23.6054,VALID,43,VALID,0.606641,
2009-02-24, 00:42:04,VALID,997.903,VALID,0,VALID,95.4847,VALID,0,VALID,23.6054,VALID,43,VALID,0.261719,
2009-02-24, 00:43:04,VALID,997.888,VALID,0,VALID,95.4847,VALID,0,VALID,23.6054,VALID,43,VALID,0.0515625,
2009-02-24, 00:44:04,VALID,997.896,VALID,0,VALID,95.4771,VALID,0,VALID,23.5859,VALID,43,VALID,0,
2009-02-24, 00:45:04,VALID,997.866,VALID,0,VALID,95.4847,VALID,0,VALID,23.5859,VALID,43,VALID,0,
2009-02-24, 00:46:04,VALID,997.803,VALID,0,VALID,95.5228,VALID,0,VALID,23.5646,VALID,43,VALID,0.220703,
2009-02-24, 00:47:04,VALID,997.75,VALID,0,VALID,95.5152,VALID,0,VALID,23.5859,VALID,43,VALID,0.178516,
2009-02-24, 00:48:04,VALID,997.699,VALID,0,VALID,95.5076,VALID,0,VALID,23.5859,VALID,43,VALID,0,
2009-02-24, 00:49:04,VALID,997.691,VALID,0,VALID,95.5305,VALID,0,VALID,23.6054,VALID,43,VALID,0,
2009-02-24, 00:50:04,VALID,997.65,VALID,0,VALID,95.5381,VALID,0,VALID,23.6054,VALID,43,VALID,0.0199219,
2009-02-24, 00:51:04,VALID,997.634,VALID,0,VALID,95.5305,VALID,0,VALID,23.625,VALID,43,VALID,0.230078,
2009-02-24, 00:52:04,VALID,997.674,VALID,0,VALID,95.5457,VALID,0,VALID,23.625,VALID,43,VALID,0.287891,
2009-02-24, 00:53:04,VALID,997.654,VALID,0,VALID,95.5381,VALID,0,VALID,23.6267,VALID,43,VALID,0.294141,
2009-02-24, 00:54:04,VALID,997.675,VALID,0,VALID,95.5381,VALID,0,VALID,23.625,VALID,43,VALID,0.421484,
2009-02-24, 00:55:04,VALID,997.687,VALID,0,VALID,95.5152,VALID,0,VALID,23.6267,VALID,43,VALID,0.581641,
2009-02-24, 00:56:04,VALID,997.686,VALID,0,VALID,95.4923,VALID,0,VALID,23.5859,VALID,36,VALID,0.683594,
2009-02-24, 00:57:04,VALID,997.676,VALID,0,VALID,95.5076,VALID,0,VALID,23.5664,VALID,36,VALID,0.716797,
2009-02-24, 00:58:04,VALID,997.716,VALID,0,VALID,95.5,VALID,0,VALID,23.5469,VALID,36,VALID,0.683203,
2009-02-24, 00:59:04,VALID,997.701,VALID,0,VALID,95.5381,VALID,0,VALID,23.5469,VALID,36,VALID,0.591016,
2009-02-24, 01:00:04,VALID,997.754,VALID,0,VALID,95.5305,VALID,0,VALID,23.5469,VALID,36,VALID,0.491406,
2009-02-24, 01:01:04,VALID,997.717,VALID,0,VALID,95.5305,VALID,0,VALID,23.5487,VALID,36,VALID,0.409766,
2009-02-24, 01:02:04,VALID,997.743,VALID,0,VALID,95.5076,VALID,0,VALID,23.5274,VALID,36,VALID,0.335156,
2009-02-24, 01:03:04,VALID,997.716,VALID,0,VALID,95.5762,VALID,0,VALID,23.5274,VALID,36,VALID,0.328516,
2009-02-24, 01:04:04,VALID,997.675,VALID,0,VALID,95.5762,VALID,0,VALID,23.5469,VALID,36,VALID,0.38125,
2009-02-24, 01:05:04,VALID,997.654,VALID,0,VALID,95.5762,VALID,0,VALID,23.5664,VALID,36,VALID,0.194922,
2009-02-24, 01:06:04,VALID,997.645,VALID,0,VALID,95.622,VALID,0,VALID,23.5859,VALID,36,VALID,0.297656,
2009-02-24, 01:07:04,VALID,997.627,VALID,0,VALID,95.6297,VALID,0,VALID,23.5859,VALID,36,VALID,0.164844,
2009-02-24, 01:08:04,VALID,997.653,VALID,0,VALID,95.622,VALID,0,VALID,23.6054,VALID,36,VALID,0.168359,
2009-02-24, 01:09:04,VALID,997.638,VALID,0,VALID,95.6297,VALID,0,VALID,23.6054,VALID,36,VALID,0.300781,
2009-02-24, 01:10:04,VALID,997.648,VALID,0,VALID,95.6297,VALID,0,VALID,23.625,VALID,36,VALID,0.401563,
2009-02-24, 01:11:04,VALID,997.603,VALID,0,VALID,95.6449,VALID,0,VALID,23.6445,VALID,118,VALID,0.560938,
2009-02-24, 01:12:04,VALID,997.583,VALID,0,VALID,95.6297,VALID,0,VALID,23.664,VALID,120,VALID,0.500781,
2009-02-24, 01:13:04,VALID,997.569,VALID,0,VALID,95.6525,VALID,0,VALID,23.6835,VALID,120,VALID,0.421484,
2009-02-24, 01:14:04,VALID,997.556,VALID,0,VALID,95.6525,VALID,0,VALID,23.703,VALID,120,VALID,0.283203,
2009-02-24, 01:15:04,VALID,997.514,VALID,0,VALID,95.622,VALID,0,VALID,23.703,VALID,120,VALID,0.206641,
2009-02-24, 01:16:04,VALID,997.477,VALID,0,VALID,95.622,VALID,0,VALID,23.703,VALID,120,VALID,0,
2009-02-24, 01:17:04,VALID,997.51,VALID,0,VALID,95.6144,VALID,0,VALID,23.703,VALID,120,VALID,0.0316406,
2009-02-24, 01:18:04,VALID,997.528,VALID,0,VALID,95.5686,VALID,0,VALID,23.703,VALID,53,VALID,0.733203,
2009-02-24, 01:19:04,VALID,997.563,VALID,0,VALID,95.5076,VALID,0,VALID,23.6445,VALID,20,VALID,1.55039,
2009-02-24, 01:20:04,VALID,997.571,VALID,0,VALID,95.5228,VALID,0,VALID,23.6445,VALID,16,VALID,1.525,
2009-02-24, 01:21:04,VALID,997.511,VALID,0,VALID,95.5305,VALID,0,VALID,23.6463,VALID,27,VALID,1.42617,
2009-02-24, 01:22:04,VALID,997.474,VALID,0,VALID,95.5762,VALID,0,VALID,23.6463,VALID,35,VALID,1.10391,
2009-02-24, 01:23:04,VALID,997.438,VALID,0,VALID,95.5991,VALID,0,VALID,23.6445,VALID,42,VALID,0.839453,
2009-02-24, 01:24:04,VALID,997.42,VALID,0,VALID,95.6297,VALID,0,VALID,23.6835,VALID,70,VALID,1.39688,
2009-02-24, 01:25:04,VALID,997.358,VALID,0,VALID,95.5534,VALID,0,VALID,23.703,VALID,84,VALID,2.50078,
2009-02-24, 01:26:04,VALID,997.328,VALID,0,VALID,95.088,VALID,0,VALID,23.742,VALID,96,VALID,2.90039,
2009-02-24, 01:27:04,VALID,997.29,VALID,0,VALID,94.3097,VALID,0,VALID,23.7616,VALID,96,VALID,2.44023,
2009-02-24, 01:28:04,VALID,997.259,VALID,0,VALID,93.3942,VALID,0,VALID,23.8396,VALID,94,VALID,2.8332,
2009-02-24, 01:29:04,VALID,997.274,VALID,0,VALID,92.4557,VALID,0,VALID,23.9567,VALID,74,VALID,3.34336,
2009-02-24, 01:30:04,VALID,997.257,VALID,0,VALID,92.1887,VALID,0,VALID,24.0933,VALID,70,VALID,3.06914,
2009-02-24, 01:31:04,VALID,997.213,VALID,0,VALID,91.7462,VALID,0,VALID,24.1909,VALID,69,VALID,2.65273,
2009-02-24, 01:32:04,VALID,997.201,VALID,0,VALID,91.6851,VALID,0,VALID,24.2299,VALID,70,VALID,1.93281,
2009-02-24, 01:33:04,VALID,997.169,VALID,0,VALID,91.235,VALID,0,VALID,24.2495,VALID,77,VALID,1.97031,
2009-02-24, 01:34:04,VALID,997.163,VALID,0,VALID,91.7462,VALID,0,VALID,24.2495,VALID,75,VALID,1.16328,
2009-02-24, 01:35:04,VALID,997.14,VALID,0,VALID,91.6699,VALID,0,VALID,24.2299,VALID,83,VALID,1.33906,
2009-02-24, 01:36:04,VALID,997.118,VALID,0,VALID,91.4486,VALID,0,VALID,24.1909,VALID,71,VALID,1.92305,
2009-02-24, 01:37:04,VALID,997.148,VALID,0,VALID,91.6623,VALID,0,VALID,24.2104,VALID,71,VALID,1.5375,
2009-02-24, 01:38:04,VALID,997.125,VALID,0,VALID,91.5783,VALID,0,VALID,24.2104,VALID,71,VALID,1.66758,
2009-02-24, 01:39:04,VALID,997.123,VALID,0,VALID,91.8148,VALID,0,VALID,24.1909,VALID,62,VALID,1.44766,
2009-02-24, 01:40:04,VALID,997.07,VALID,0,VALID,92.0285,VALID,0,VALID,24.1909,VALID,77,VALID,1.20586,
2009-02-24, 01:41:04,VALID,997.055,VALID,0,VALID,92.3031,VALID,0,VALID,24.1714,VALID,89,VALID,0.993359,
2009-02-24, 01:42:04,VALID,997.054,VALID,0,VALID,92.12,VALID,0,VALID,24.1519,VALID,93,VALID,0.996484,
2009-02-24, 01:43:04,VALID,997.023,VALID,0,VALID,92.2574,VALID,0,VALID,24.1519,VALID,96,VALID,0.942578,
2009-02-24, 01:44:04,VALID,996.986,VALID,0,VALID,92.3031,VALID,0,VALID,24.1128,VALID,109,VALID,0.778516,
2009-02-24, 01:45:04,VALID,997.003,VALID,0,VALID,92.3566,VALID,0,VALID,24.0933,VALID,118,VALID,0.728516,
2009-02-24, 01:46:04,VALID,996.965,VALID,0,VALID,92.4939,VALID,0,VALID,24.0738,VALID,117,VALID,0.617188,
2009-02-24, 01:47:04,VALID,996.978,VALID,0,VALID,92.6312,VALID,0,VALID,24.0543,VALID,117,VALID,0.353516,
2009-02-24, 01:48:04,VALID,996.973,VALID,0,VALID,92.7075,VALID,0,VALID,24.0348,VALID,117,VALID,0.349219,
2009-02-24, 01:49:04,VALID,996.952,VALID,0,VALID,92.6541,VALID,0,VALID,24.0153,VALID,117,VALID,0.614453,
2009-02-24, 01:50:04,VALID,996.92,VALID,0,VALID,92.6541,VALID,0,VALID,24.0153,VALID,117,VALID,0.604688,
2009-02-24, 01:51:04,VALID,996.926,VALID,0,VALID,92.7762,VALID,0,VALID,24.0153,VALID,117,VALID,0.455859,
2009-02-24, 01:52:04,VALID,996.921,VALID,0,VALID,92.738,VALID,0,VALID,23.9957,VALID,104,VALID,0.40625,
2009-02-24, 01:53:04,VALID,996.898,VALID,0,VALID,92.8372,VALID,0,VALID,24.0171,VALID,102,VALID,0.325,
2009-02-24, 01:54:04,VALID,996.881,VALID,0,VALID,92.883,VALID,0,VALID,23.9762,VALID,102,VALID,0.264844,
2009-02-24, 01:55:04,VALID,996.887,VALID,0,VALID,92.9669,VALID,0,VALID,23.9567,VALID,102,VALID,0.104297,
2009-02-24, 01:56:04,VALID,996.868,VALID,0,VALID,93.0661,VALID,0,VALID,23.9177,VALID,102,VALID,0,
2009-02-24, 01:57:04,VALID,996.907,VALID,0,VALID,93.1195,VALID,0,VALID,23.8982,VALID,102,VALID,0,
2009-02-24, 01:58:04,VALID,996.917,VALID,0,VALID,93.1729,VALID,0,VALID,23.8786,VALID,102,VALID,0,
2009-02-24, 01:59:04,VALID,996.921,VALID,0,VALID,93.3179,VALID,0,VALID,23.8591,VALID,102,VALID,0.263672,
2009-02-24, 02:00:04,VALID,996.906,VALID,0,VALID,93.4018,VALID,0,VALID,23.8591,VALID,112,VALID,0.485156,
2009-02-24, 02:01:04,VALID,996.926,VALID,0,VALID,93.4552,VALID,0,VALID,23.8786,VALID,142,VALID,0.576953,
2009-02-24, 02:02:04,VALID,996.92,VALID,0,VALID,93.4934,VALID,0,VALID,23.8982,VALID,160,VALID,0.755078,
2009-02-24, 02:03:04,VALID,996.891,VALID,0,VALID,93.5315,VALID,0,VALID,23.9177,VALID,161,VALID,0.751172,
2009-02-24, 02:04:04,VALID,996.881,VALID,0,VALID,93.501,VALID,0,VALID,23.9372,VALID,167,VALID,0.64375,
2009-02-24, 02:05:04,VALID,996.828,VALID,0,VALID,93.4781,VALID,0,VALID,23.9762,VALID,168,VALID,0.502344,
2009-02-24, 02:06:04,VALID,996.833,VALID,0,VALID,93.44,VALID,0,VALID,23.9957,VALID,180,VALID,0.373047,
2009-02-24, 02:07:04,VALID,996.811,VALID,0,VALID,93.3637,VALID,0,VALID,23.9549,VALID,180,VALID,0.173828,
2009-02-24, 02:08:04,VALID,996.833,VALID,0,VALID,93.3637,VALID,0,VALID,23.9567,VALID,180,VALID,0.216016,
2009-02-24, 02:09:04,VALID,996.837,VALID,0,VALID,93.3637,VALID,0,VALID,23.9177,VALID,209,VALID,0.698438,
2009-02-24, 02:10:04,VALID,996.813,VALID,0,VALID,93.356,VALID,0,VALID,23.8982,VALID,221,VALID,0.772266,
2009-02-24, 02:11:04,VALID,996.772,VALID,0,VALID,93.5086,VALID,0,VALID,23.8786,VALID,211,VALID,0.793359,
2009-02-24, 02:12:04,VALID,996.787,VALID,0,VALID,93.707,VALID,0,VALID,23.8768,VALID,175,VALID,0.987891,
2009-02-24, 02:13:04,VALID,996.738,VALID,0,VALID,93.8062,VALID,0,VALID,23.8982,VALID,184,VALID,0.928906,
2009-02-24, 02:14:04,VALID,996.711,VALID,0,VALID,93.7757,VALID,0,VALID,23.8963,VALID,217,VALID,0.752344,
2009-02-24, 02:15:04,VALID,996.697,VALID,0,VALID,93.6231,VALID,0,VALID,23.8982,VALID,216,VALID,0.462109,
2009-02-24, 02:16:04,VALID,996.735,VALID,0,VALID,93.646,VALID,0,VALID,23.8982,VALID,216,VALID,0.406641,
2009-02-24, 02:17:04,VALID,996.708,VALID,0,VALID,93.6383,VALID,0,VALID,23.8768,VALID,207,VALID,0.616016,
2009-02-24, 02:18:04,VALID,996.667,VALID,0,VALID,93.6688,VALID,0,VALID,23.8982,VALID,207,VALID,0.287891,
2009-02-24, 02:19:04,VALID,996.605,VALID,0,VALID,93.6688,VALID,0,VALID,23.8982,VALID,207,VALID,0.419141,
2009-02-24, 02:20:04,VALID,996.617,VALID,0,VALID,93.7146,VALID,0,VALID,23.8982,VALID,224,VALID,0.380469,
2009-02-24, 02:21:04,VALID,996.615,VALID,0,VALID,93.707,VALID,0,VALID,23.8982,VALID,224,VALID,0.110547,
2009-02-24, 02:22:04,VALID,996.604,VALID,0,VALID,93.7146,VALID,0,VALID,23.8591,VALID,224,VALID,0,
2009-02-24, 02:23:04,VALID,996.6,VALID,0,VALID,93.7757,VALID,0,VALID,23.8591,VALID,224,VALID,0,
2009-02-24, 02:24:04,VALID,996.595,VALID,0,VALID,93.8672,VALID,0,VALID,23.8591,VALID,213,VALID,0.116406,
2009-02-24, 02:25:04,VALID,996.587,VALID,0,VALID,94.0045,VALID,0,VALID,23.8591,VALID,170,VALID,0.639453,
2009-02-24, 02:26:04,VALID,996.545,VALID,0,VALID,94.0961,VALID,0,VALID,23.8378,VALID,170,VALID,0.752734,
2009-02-24, 02:27:04,VALID,996.543,VALID,0,VALID,94.1037,VALID,0,VALID,23.8786,VALID,170,VALID,0.769531,
2009-02-24, 02:28:04,VALID,996.529,VALID,0,VALID,94.119,VALID,0,VALID,23.8591,VALID,170,VALID,0.614453,
2009-02-24, 02:29:04,VALID,996.535,VALID,0,VALID,94.0503,VALID,0,VALID,23.8396,VALID,170,VALID,0.733203,
2009-02-24, 02:30:04,VALID,996.565,VALID,0,VALID,94.0503,VALID,0,VALID,23.8201,VALID,169,VALID,0.593359,
2009-02-24, 02:31:04,VALID,996.567,VALID,0,VALID,94.119,VALID,0,VALID,23.8006,VALID,169,VALID,0.298047,
2009-02-24, 02:32:04,VALID,996.551,VALID,0,VALID,94.1495,VALID,0,VALID,23.7597,VALID,169,VALID,0.0609375,
2009-02-24, 02:33:04,VALID,996.608,VALID,0,VALID,94.2258,VALID,0,VALID,23.7811,VALID,169,VALID,0,
2009-02-24, 02:34:04,VALID,996.598,VALID,0,VALID,94.2487,VALID,0,VALID,23.7402,VALID,169,VALID,0,
2009-02-24, 02:35:04,VALID,996.619,VALID,0,VALID,94.2105,VALID,0,VALID,23.742,VALID,169,VALID,0,
2009-02-24, 02:36:04,VALID,996.615,VALID,0,VALID,94.2258,VALID,0,VALID,23.703,VALID,169,VALID,0,
2009-02-24, 02:37:04,VALID,996.623,VALID,0,VALID,94.3097,VALID,0,VALID,23.7012,VALID,169,VALID,0,
2009-02-24, 02:38:04,VALID,996.594,VALID,0,VALID,94.3555,VALID,0,VALID,23.7225,VALID,169,VALID,0,
2009-02-24, 02:39:04,VALID,996.566,VALID,0,VALID,94.3937,VALID,0,VALID,23.703,VALID,169,VALID,0,
2009-02-24, 02:40:04,VALID,996.576,VALID,0,VALID,94.4165,VALID,0,VALID,23.703,VALID,169,VALID,0,
2009-02-24, 02:41:04,VALID,996.613,VALID,0,VALID,94.4471,VALID,0,VALID,23.703,VALID,169,VALID,0,
2009-02-24, 02:42:04,VALID,996.58,VALID,0,VALID,94.4852,VALID,0,VALID,23.703,VALID,169,VALID,0,
2009-02-24, 02:43:04,VALID,996.601,VALID,0,VALID,94.5005,VALID,0,VALID,23.6835,VALID,169,VALID,0,
2009-02-24, 02:44:04,VALID,996.612,VALID,0,VALID,94.5234,VALID,0,VALID,23.664,VALID,169,VALID,0,
2009-02-24, 02:45:04,VALID,996.652,VALID,0,VALID,94.5081,VALID,0,VALID,23.664,VALID,169,VALID,0,
2009-02-24, 02:46:04,VALID,996.721,VALID,0,VALID,94.5005,VALID,0,VALID,23.6445,VALID,163,VALID,0.252734,
2009-02-24, 02:47:04,VALID,996.696,VALID,0,VALID,94.5691,VALID,0,VALID,23.6427,VALID,161,VALID,0.374609,
2009-02-24, 02:48:04,VALID,996.706,VALID,0,VALID,94.5844,VALID,0,VALID,23.6445,VALID,161,VALID,0.203516,
2009-02-24, 02:49:04,VALID,996.705,VALID,0,VALID,94.5768,VALID,0,VALID,23.6445,VALID,161,VALID,0.404687,
2009-02-24, 02:50:04,VALID,996.716,VALID,0,VALID,94.7675,VALID,0,VALID,23.6835,VALID,115,VALID,0.547266,
2009-02-24, 02:51:04,VALID,996.72,VALID,0,VALID,94.6836,VALID,0,VALID,23.6835,VALID,114,VALID,0.261328,
2009-02-24, 02:52:04,VALID,996.693,VALID,0,VALID,94.676,VALID,0,VALID,23.6835,VALID,114,VALID,0.2375,
2009-02-24, 02:53:04,VALID,996.711,VALID,0,VALID,94.6836,VALID,0,VALID,23.664,VALID,114,VALID,0.355859,
2009-02-24, 02:54:04,VALID,996.706,VALID,0,VALID,94.7065,VALID,0,VALID,23.6622,VALID,114,VALID,0.237891,
2009-02-24, 02:55:04,VALID,996.712,VALID,0,VALID,94.6836,VALID,0,VALID,23.6835,VALID,114,VALID,0,
2009-02-24, 02:56:04,VALID,996.714,VALID,0,VALID,94.6454,VALID,0,VALID,23.664,VALID,114,VALID,0,
2009-02-24, 02:57:04,VALID,996.715,VALID,0,VALID,94.6683,VALID,0,VALID,23.6445,VALID,114,VALID,0.00078125,
2009-02-24, 02:58:04,VALID,996.722,VALID,0,VALID,94.6912,VALID,0,VALID,23.6445,VALID,114,VALID,0.135547,
2009-02-24, 02:59:04,VALID,996.74,VALID,0,VALID,94.7294,VALID,0,VALID,23.6445,VALID,114,VALID,0,
2009-02-24, 03:00:04,VALID,996.717,VALID,0,VALID,94.7599,VALID,0,VALID,23.664,VALID,114,VALID,0.275391,
2009-02-24, 03:01:04,VALID,996.686,VALID,0,VALID,94.7904,VALID,0,VALID,23.664,VALID,114,VALID,0.439844,
2009-02-24, 03:02:04,VALID,996.709,VALID,0,VALID,94.7675,VALID,0,VALID,23.664,VALID,114,VALID,0.548828,
2009-02-24, 03:03:04,VALID,996.647,VALID,0,VALID,94.7751,VALID,0,VALID,23.6427,VALID,117,VALID,0.364453,
2009-02-24, 03:04:04,VALID,996.659,VALID,0,VALID,94.7751,VALID,0,VALID,23.664,VALID,117,VALID,0.160156,
2009-02-24, 03:05:04,VALID,996.646,VALID,0,VALID,94.7751,VALID,0,VALID,23.6427,VALID,117,VALID,0.332422,
2009-02-24, 03:06:04,VALID,996.583,VALID,0,VALID,94.7599,VALID,0,VALID,23.664,VALID,117,VALID,0.433594,
2009-02-24, 03:07:04,VALID,996.587,VALID,0,VALID,94.7599,VALID,0,VALID,23.6427,VALID,117,VALID,0.313672,
2009-02-24, 03:08:04,VALID,996.578,VALID,0,VALID,94.7294,VALID,0,VALID,23.6445,VALID,117,VALID,0.244141,
2009-02-24, 03:09:04,VALID,996.574,VALID,0,VALID,94.737,VALID,0,VALID,23.6232,VALID,117,VALID,0.379687,
2009-02-24, 03:10:04,VALID,996.602,VALID,0,VALID,94.7828,VALID,0,VALID,23.6445,VALID,117,VALID,0.46875,
2009-02-24, 03:11:04,VALID,996.572,VALID,0,VALID,94.7675,VALID,0,VALID,23.6054,VALID,117,VALID,0.151172,
2009-02-24, 03:12:04,VALID,996.545,VALID,0,VALID,94.8057,VALID,0,VALID,23.625,VALID,117,VALID,0.376172,
2009-02-24, 03:13:04,VALID,996.562,VALID,0,VALID,94.7904,VALID,0,VALID,23.5841,VALID,116,VALID,0.216406,
2009-02-24, 03:14:04,VALID,996.532,VALID,0,VALID,94.7675,VALID,0,VALID,23.5841,VALID,116,VALID,0.219141,
2009-02-24, 03:15:04,VALID,996.509,VALID,0,VALID,94.7904,VALID,0,VALID,23.5859,VALID,116,VALID,0.403906,
2009-02-24, 03:16:04,VALID,996.507,VALID,0,VALID,94.8514,VALID,0,VALID,23.5646,VALID,116,VALID,0.294531,
2009-02-24, 03:17:04,VALID,996.521,VALID,0,VALID,94.8285,VALID,0,VALID,23.5664,VALID,116,VALID,0.190625,
2009-02-24, 03:18:04,VALID,996.523,VALID,0,VALID,94.8591,VALID,0,VALID,23.5451,VALID,116,VALID,0.287891,
2009-02-24, 03:19:04,VALID,996.494,VALID,0,VALID,94.9048,VALID,0,VALID,23.5646,VALID,199,VALID,0.412891,
2009-02-24, 03:20:04,VALID,996.464,VALID,0,VALID,94.9506,VALID,0,VALID,23.6054,VALID,200,VALID,0.472656,
2009-02-24, 03:21:04,VALID,996.457,VALID,0,VALID,94.9583,VALID,0,VALID,23.5841,VALID,200,VALID,0.333203,
2009-02-24, 03:22:04,VALID,996.467,VALID,0,VALID,94.9277,VALID,0,VALID,23.5646,VALID,200,VALID,0.0894531,
2009-02-24, 03:23:04,VALID,996.466,VALID,0,VALID,94.9201,VALID,0,VALID,23.5841,VALID,200,VALID,0.00195313,
2009-02-24, 03:24:04,VALID,996.458,VALID,0,VALID,94.8896,VALID,0,VALID,23.5859,VALID,200,VALID,0,
2009-02-24, 03:25:04,VALID,996.458,VALID,0,VALID,94.9277,VALID,0,VALID,23.5859,VALID,200,VALID,0,
2009-02-24, 03:26:04,VALID,996.467,VALID,0,VALID,94.943,VALID,0,VALID,23.5841,VALID,200,VALID,0,
2009-02-24, 03:27:04,VALID,996.512,VALID,0,VALID,94.9506,VALID,0,VALID,23.5859,VALID,200,VALID,0,
2009-02-24, 03:28:05,VALID,996.507,VALID,0,VALID,94.9201,VALID,0,VALID,23.5859,VALID,200,VALID,0.162891,
2009-02-24, 03:29:05,VALID,996.546,VALID,0,VALID,94.8972,VALID,0,VALID,23.5859,VALID,229,VALID,0.474609,
2009-02-24, 03:30:05,VALID,996.551,VALID,0,VALID,94.8667,VALID,0,VALID,23.5451,VALID,233,VALID,0.521875,
2009-02-24, 03:31:05,VALID,996.568,VALID,0,VALID,94.8514,VALID,0,VALID,23.5469,VALID,284,VALID,0.637109,
2009-02-24, 03:32:05,VALID,996.563,VALID,0,VALID,94.8285,VALID,0,VALID,23.5274,VALID,289,VALID,0.521484,
2009-02-24, 03:33:05,VALID,996.575,VALID,0,VALID,94.8362,VALID,0,VALID,23.5079,VALID,290,VALID,0.605859,
2009-02-24, 03:34:05,VALID,996.575,VALID,0,VALID,94.8667,VALID,0,VALID,23.5079,VALID,290,VALID,0.655078,
2009-02-24, 03:35:05,VALID,996.594,VALID,0,VALID,94.8743,VALID,0,VALID,23.4884,VALID,290,VALID,0.596484,
2009-02-24, 03:36:05,VALID,996.594,VALID,0,VALID,94.882,VALID,0,VALID,23.4475,VALID,290,VALID,0.395703,
2009-02-24, 03:37:05,VALID,996.604,VALID,0,VALID,94.9048,VALID,0,VALID,23.4475,VALID,290,VALID,0.411328,
2009-02-24, 03:38:05,VALID,996.611,VALID,0,VALID,94.9354,VALID,0,VALID,23.4493,VALID,290,VALID,0.259766,
2009-02-24, 03:39:05,VALID,996.61,VALID,0,VALID,94.943,VALID,0,VALID,23.4475,VALID,289,VALID,0.278516,
2009-02-24, 03:40:05,VALID,996.625,VALID,0,VALID,94.9735,VALID,0,VALID,23.4493,VALID,289,VALID,0.45,
2009-02-24, 03:41:05,VALID,996.64,VALID,0,VALID,95.004,VALID,0,VALID,23.4688,VALID,287,VALID,0.620313,
2009-02-24, 03:42:05,VALID,996.635,VALID,0,VALID,94.9964,VALID,0,VALID,23.4475,VALID,282,VALID,0.240234,
2009-02-24, 03:43:05,VALID,996.636,VALID,0,VALID,94.9735,VALID,0,VALID,23.4493,VALID,282,VALID,0.0722656,
2009-02-24, 03:44:05,VALID,996.61,VALID,0,VALID,94.9735,VALID,0,VALID,23.428,VALID,282,VALID,0.0890625,
2009-02-24, 03:45:05,VALID,996.617,VALID,0,VALID,94.9964,VALID,0,VALID,23.428,VALID,282,VALID,0.115234,
2009-02-24, 03:46:05,VALID,996.615,VALID,0,VALID,95.0269,VALID,0,VALID,23.4688,VALID,275,VALID,0.441016,
2009-02-24, 03:47:05,VALID,996.598,VALID,0,VALID,95.0422,VALID,0,VALID,23.4688,VALID,253,VALID,0.414063,